When you browse on this site, cookies collect data to enhance your experience and personalize the content and advertising you see.
Visit our Privacy Policy to learn more. By continuing to use the site, you agree to this use of cookies and data.
  • In Hungary
  • List of Countries
  • For 7 days
  • Water Temperature
  • Satellite Maps
  • Weather Map
  • News
  • Weather Widgets
  • user-avatar
    Login

    Hourly Weather Gawlowek

    Today, 19 May, Sunday

    Time Temperature Precipitation Wind Pressure Humidity
    00:00 +14°C° 0 mm 1 mps 739 mmHg 91%
    01:00 +13°C° 0 mm 1 mps 739 mmHg 91%
    02:00 +13°C° 0 mm 1 mps 738 mmHg 91%
    03:00 +12°C° 0 mm 1 mps 738 mmHg 91%
    04:00 +12°C° 0 mm 1 mps 738 mmHg 91%
    05:00 +14°C° 0 mm 1 mps 738 mmHg 88%
    06:00 +15°C° 0 mm 1 mps 738 mmHg 84%
    07:00 +18°C° 0 mm 1 mps 738 mmHg 80%
    08:00 +20°C° 0 mm 1 mps 738 mmHg 75%
    09:00 +20°C° 0 mm 2 mps 738 mmHg 70%
    10:00 +23°C° 0 mm 2 mps 738 mmHg 65%
    11:00 +24°C° 0.1 mm 3 mps 738 mmHg 62%
    12:00 +25°C° 0.1 mm 4 mps 738 mmHg 60%
    13:00 +26°C° 0.1 mm 4 mps 737 mmHg 57%
    14:00 +25°C° 0.3 mm 4 mps 737 mmHg 60%
    15:00 +25°C° 0.3 mm 5 mps 737 mmHg 62%
    16:00 +25°C° 0.3 mm 5 mps 737 mmHg 65%
    17:00 +22°C° 0.1 mm 4 mps 737 mmHg 70%
    18:00 +20°C° 0.1 mm 4 mps 737 mmHg 74%
    19:00 +19°C° 0.1 mm 4 mps 737 mmHg 79%
    20:00 +18°C° 0 mm 3 mps 737 mmHg 82%
    21:00 +16°C° 0 mm 3 mps 737 mmHg 85%
    22:00 +14°C° 0 mm 3 mps 737 mmHg 88%
    23:00 +15°C° 0 mm 2 mps 737 mmHg 89%

    Tomorrow, 20 May, Monday

    Time Temperature Precipitation Wind Pressure Humidity
    00:00 +15°C° 0 mm 2 mps 736 mmHg 89%
    01:00 +14°C° 0 mm 2 mps 736 mmHg 90%
    02:00 +14°C° 0 mm 2 mps 736 mmHg 90%
    03:00 +14°C° 0 mm 2 mps 735 mmHg 90%
    04:00 +14°C° 0 mm 2 mps 735 mmHg 90%
    05:00 +16°C° 0 mm 3 mps 735 mmHg 87%
    06:00 +17°C° 0 mm 3 mps 735 mmHg 83%
    07:00 +19°C° 0 mm 4 mps 735 mmHg 80%
    08:00 +20°C° 0 mm 4 mps 736 mmHg 74%
    09:00 +22°C° 0 mm 4 mps 736 mmHg 69%
    10:00 +25°C° 0 mm 5 mps 736 mmHg 63%
    11:00 +25°C° 0 mm 5 mps 736 mmHg 60%
    12:00 +26°C° 0 mm 5 mps 736 mmHg 57%
    13:00 +26°C° 0 mm 5 mps 737 mmHg 53%
    14:00 +26°C° 0 mm 4 mps 737 mmHg 55%
    15:00 +26°C° 0 mm 4 mps 737 mmHg 57%
    16:00 +25°C° 0 mm 4 mps 737 mmHg 60%
    17:00 +22°C° 0 mm 4 mps 737 mmHg 64%
    18:00 +20°C° 0 mm 3 mps 737 mmHg 69%
    19:00 +18°C° 0 mm 3 mps 737 mmHg 74%
    20:00 +18°C° 0 mm 3 mps 737 mmHg 74%
    21:00 +17°C° 0 mm 2 mps 737 mmHg 75%
    22:00 +16°C° 0 mm 2 mps 737 mmHg 76%
    23:00 +15°C° 0 mm 2 mps 737 mmHg 78%

    Day after tomorrow, 21 May, Tuesday

    Time Temperature Precipitation Wind Pressure Humidity
    00:00 +14°C° 0 mm 2 mps 737 mmHg 80%
    01:00 +14°C° 0 mm 2 mps 737 mmHg 82%
    02:00 +14°C° 0 mm 2 mps 737 mmHg 82%
    03:00 +13°C° 0 mm 1 mps 737 mmHg 81%
    04:00 +13°C° 0 mm 1 mps 737 mmHg 81%
    05:00 +15°C° 0 mm 1 mps 737 mmHg 78%
    06:00 +16°C° 0 mm 1 mps 737 mmHg 75%
    07:00 +16°C° 0 mm 0 mps 737 mmHg 73%
    08:00 +18°C° 0.3 mm 1 mps 737 mmHg 73%
    09:00 +19°C° 0.3 mm 1 mps 738 mmHg 73%
    10:00 +18°C° 0.3 mm 2 mps 738 mmHg 74%
    11:00 +18°C° 0.3 mm 2 mps 738 mmHg 73%
    12:00 +18°C° 0.3 mm 2 mps 738 mmHg 72%
    13:00 +18°C° 0.3 mm 2 mps 738 mmHg 72%
    14:00 +19°C° 0.1 mm 2 mps 738 mmHg 69%
    15:00 +19°C° 0.1 mm 2 mps 738 mmHg 67%
    16:00 +20°C° 0.1 mm 2 mps 738 mmHg 65%
    17:00 +19°C° 0.3 mm 2 mps 738 mmHg 69%
    18:00 +18°C° 0.3 mm 1 mps 738 mmHg 74%
    19:00 +16°C° 0.3 mm 1 mps 738 mmHg 79%
    20:00 +16°C° 0 mm 1 mps 738 mmHg 80%
    21:00 +15°C° 0 mm 1 mps 739 mmHg 82%
    22:00 +14°C° 0 mm 1 mps 739 mmHg 84%
    23:00 +14°C° 0.1 mm 1 mps 739 mmHg 85%

    22 May, Wednesday

    Time Temperature Precipitation Wind Pressure Humidity
    00:00 +14°C° 0.1 mm 1 mps 739 mmHg 87%
    01:00 +14°C° 0.1 mm 1 mps 739 mmHg 89%
    02:00 +13°C° 0 mm 1 mps 739 mmHg 90%
    03:00 +13°C° 0 mm 1 mps 739 mmHg 90%
    04:00 +13°C° 0 mm 1 mps 739 mmHg 91%
    05:00 +14°C° 0 mm 1 mps 739 mmHg 88%
    06:00 +15°C° 0 mm 1 mps 739 mmHg 85%
    07:00 +16°C° 0 mm 1 mps 739 mmHg 82%
    08:00 +18°C° 0.5 mm 1 mps 739 mmHg 78%
    09:00 +18°C° 0.5 mm 2 mps 739 mmHg 75%
    10:00 +19°C° 0.5 mm 2 mps 739 mmHg 72%
    11:00 +19°C° 1.2 mm 2 mps 739 mmHg 72%
    12:00 +20°C° 1.2 mm 3 mps 739 mmHg 73%
    13:00 +20°C° 1.2 mm 3 mps 739 mmHg 74%
    14:00 +20°C° 0.6 mm 3 mps 739 mmHg 75%
    15:00 +20°C° 0.6 mm 4 mps 739 mmHg 77%
    16:00 +19°C° 0.6 mm 4 mps 739 mmHg 78%
    17:00 +18°C° 0.7 mm 4 mps 739 mmHg 82%
    18:00 +17°C° 0.7 mm 3 mps 739 mmHg 87%
    19:00 +16°C° 0.7 mm 3 mps 739 mmHg 91%
    20:00 +14°C° 0.1 mm 3 mps 740 mmHg 92%
    21:00 +14°C° 0.1 mm 3 mps 740 mmHg 93%
    22:00 +13°C° 0.1 mm 4 mps 740 mmHg 95%
    23:00 +13°C° 0 mm 4 mps 740 mmHg 95%

    23 May, Thursday

    Time Temperature Precipitation Wind Pressure Humidity
    00:00 +12°C° 0 mm 3 mps 740 mmHg 94%
    01:00 +12°C° 0 mm 3 mps 740 mmHg 94%
    02:00 +12°C° 0 mm 3 mps 740 mmHg 95%
    03:00 +12°C° 0 mm 2 mps 740 mmHg 95%
    04:00 +12°C° 0 mm 2 mps 740 mmHg 95%
    05:00 +13°C° 0 mm 2 mps 740 mmHg 93%
    06:00 +13°C° 0 mm 3 mps 740 mmHg 91%
    07:00 +14°C° 0 mm 3 mps 741 mmHg 88%
    08:00 +14°C° 0.1 mm 3 mps 741 mmHg 88%
    09:00 +16°C° 0.1 mm 3 mps 741 mmHg 87%
    10:00 +16°C° 0.1 mm 3 mps 741 mmHg 87%
    11:00 +15°C° 0.4 mm 4 mps 741 mmHg 87%
    12:00 +15°C° 0.4 mm 5 mps 741 mmHg 87%
    13:00 +16°C° 0.4 mm 6 mps 741 mmHg 87%
    14:00 +14°C° 0.2 mm 6 mps 741 mmHg 88%
    15:00 +13°C° 0.2 mm 6 mps 741 mmHg 90%
    16:00 +11°C° 0.2 mm 7 mps 741 mmHg 91%
    17:00 +10°C° 0.3 mm 6 mps 742 mmHg 92%
    18:00 +10°C° 0.3 mm 6 mps 742 mmHg 93%
    19:00 +10°C° 0.3 mm 5 mps 742 mmHg 94%
    20:00 +10°C° 0.5 mm 5 mps 743 mmHg 94%
    21:00 +11°C° 0.5 mm 4 mps 743 mmHg 94%
    22:00 +11°C° 0.5 mm 4 mps 743 mmHg 94%
    23:00 +11°C° 0.3 mm 4 mps 743 mmHg 94%

    24 May, Friday

    Time Temperature Precipitation Wind Pressure Humidity
    00:00 +10°C° 0.3 mm 4 mps 743 mmHg 94%
    01:00 +10°C° 0.3 mm 3 mps 743 mmHg 94%
    02:00 +10°C° 0 mm 3 mps 743 mmHg 94%
    03:00 +10°C° 0 mm 3 mps 743 mmHg 94%
    04:00 +10°C° 0 mm 2 mps 743 mmHg 93%
    05:00 +10°C° 0 mm 2 mps 743 mmHg 90%
    06:00 +12°C° 0 mm 2 mps 743 mmHg 87%
    07:00 +13°C° 0 mm 2 mps 743 mmHg 84%
    08:00 +14°C° 0 mm 2 mps 743 mmHg 79%
    09:00 +15°C° 0 mm 2 mps 742 mmHg 74%
    10:00 +16°C° 0 mm 2 mps 742 mmHg 69%
    11:00 +17°C° 0 mm 2 mps 741 mmHg 67%
    12:00 +17°C° 0 mm 2 mps 741 mmHg 65%
    13:00 +18°C° 0 mm 2 mps 740 mmHg 62%
    14:00 +18°C° 0 mm 2 mps 740 mmHg 61%
    15:00 +19°C° 0 mm 2 mps 739 mmHg 60%
    16:00 +20°C° 0 mm 1 mps 739 mmHg 59%
    17:00 +19°C° 0 mm 1 mps 739 mmHg 63%
    18:00 +16°C° 0 mm 1 mps 738 mmHg 68%
    19:00 +14°C° 0 mm 0 mps 738 mmHg 73%
    20:00 +14°C° 0 mm 1 mps 738 mmHg 76%
    21:00 +13°C° 0 mm 1 mps 738 mmHg 79%
    22:00 +12°C° 0 mm 1 mps 738 mmHg 82%
    23:00 +12°C° 0 mm 1 mps 737 mmHg 84%
    Show more